CAPE
0 0 0 0 0 0 0 0 0 0 0 0 0 0 0 0 0 0 0 0 0 0 0 0 1 1 0
0 0 0 0 0 0 0 0 0 0 0 0 0 0 0 0 0 0 0 0 0 0 0 0 1 2 1
0 0 0 0 0 0 0 0 0 0 0 0 0 0 0 0 0 0 0 0 0 0 0 0 0 1 2
0 0 0 0 0 0 0 0 0 0 0 0 0 0 0 0 0 0 0 0 0 0 0 0 1 1 1
0 0 0 0 0 0 0 0 0 0 0 0 0 0 0 0 0 0 0 0 0 0 0 0 0 0 0
0 0 0 0 0 0 0 0 0 0 0 0 0 0 0 0 0 0 0 0 0 0 0 0 0 0 1
0 0 0 0 0 0 0 0 0 0 0 0 0 0 0 0 0 0 0 0 0 0 0 0 0 0 0
0 0 0 0 0 0 0 0 0 0 0 0 0 0 0 0 0 0 0 0 0 0 0 0 0 1 2
1 0 0 0 0 0 0 0 0 0 0 0 0 0 0 0 0 0 0 0 0 0 0 0 2 4 1
0 0 7 4 9 0 0 0 0 0 0 0 0 0 0 0 0 0 0 0 0 0 0 3 1 0 0
0 0 0 0 0 0 0 0 0 0 0 0 0 0 0 0 0 0 0 0 0 0 0 0 0 0 0
0 0 0 0 0 0 0 0 0 0 0 0 0 0 0 0 0 0 0 0 0 0 0 0 0 0 0
0 0 0 0 0 0 0 0 0 0 0 0 1 0 0 0 0 0 0 0 0 0 0 0 0 0 0
0 0 0 0 0 0 0 0 0 0 0 0 0 0 0 0 0 0 0 0 0 0 0 0 0 0 0
0 0 0 0 0 0 0 0 1 0 0 0 0 0 0 0 0 0 0 0 0 0 0 0 0 0 0
0 0 0 0 0 0 0 0 0 0 0 0 0 0 0 1 1 0 0 0 0 0 0 0 0 0 0
0 0 0 0 0 0 0 0 0 0 0 0 0 0 0 0 0 1 7 0 0 0 0 0 0 0 0
CIN
0 0 0 0 0 0 0 0 0 0 0 0 0 0 0 0 0 0 0 0 0 0 0 0 0 0 0
0 0 0 0 0 0 0 0 0 0 0 0 0 0 0 0 0 0 0 0 0 0 0 0 0 0 0
0 0 0 0 0 0 0 0 0 0 0 0 0 0 0 0 0 0 0 0 0 0 0 0 0 0 -1
0 0 0 0 0 0 0 0 0 0 0 0 0 0 0 0 0 0 0 0 0 0 0 0 0 -1 0
0 0 0 0 0 0 0 0 0 0 0 0 0 0 0 0 0 0 0 0 0 0 0 0 0 0 0
0 0 0 0 0 0 0 0 0 0 0 0 0 0 0 0 0 0 0 0 0 0 0 0 0 0 -1
0 0 0 0 0 0 0 0 0 0 0 0 0 0 0 0 0 0 0 0 0 0 0 0 0 -1 -1
0 0 0 0 0 0 0 0 0 0 0 0 0 0 0 0 0 0 0 0 0 0 0 0 0 -1 -1
0 0 0 0 0 0 0 0 0 0 0 0 0 0 0 0 0 0 0 0 0 0 0 -1 -1 -1 -4
0 0 0 0 0 0 0 0 0 0 0 0 0 0 0 0 0 0 0 0 0 0 0 -2 -2 0 0
0 0 0 0 0 0 0 0 0 0 0 0 0 0 0 0 0 0 0 0 0 0 0 0 0 0 0
0 0 0 0 0 0 0 0 0 0 0 0 0 0 0 0 0 0 0 0 0 0 0 0 0 0 0
0 0 0 0 0 0 0 0 0 0 0 0 -2 0 0 0 0 0 0 0 0 0 0 0 0 0 0
0 0 0 0 0 0 0 0 0 0 0 0 0 0 0 0 0 0 0 0 0 0 0 0 0 0 0
0 0 0 0 0 0 0 0 -2 0 0 0 0 0 0 0 0 0 0 0 0 0 0 0 0 0 0
0 0 0 0 0 0 0 0 0 0 0 0 0 -1 -9 -3 -2 0 0 0 0 0 0 0 0 0 0
0 0 0 0 0 0 0 0 0 0 0 0 0 0 0 0 0 -2 -3 -7 0 0 0 0 0 0 0
Wind_Speed
26 21 21 22 21 21 20 21 21 20 20 19 19 20 20 20 22 23 24 24 25 27 27 28 28 28 28
24 25 24 22 22 22 23 23 23 22 22 21 23 22 23 23 23 24 24 26 26 28 29 31 31 31 31
28 25 24 23 24 25 24 25 24 25 25 25 24 25 24 25 26 26 27 28 28 30 32 32 33 32 33
25 26 26 26 26 28 29 27 27 26 26 26 26 26 27 28 29 30 30 30 30 32 33 33 33 34 35
26 27 28 29 30 28 30 29 30 28 27 28 28 28 30 31 33 32 31 32 31 32 33 33 33 35 35
28 30 31 27 26 28 30 32 37 31 33 33 31 33 33 33 33 33 32 32 33 32 33 34 35 36 36
31 31 30 28 30 32 33 34 36 33 32 39 34 37 34 33 33 32 33 35 35 35 36 37 36 36 37
31 32 33 33 35 36 37 39 38 37 36 44 38 41 38 37 36 35 36 38 39 37 36 37 37 37 37
33 34 33 33 34 36 40 42 45 43 38 41 41 42 40 40 38 39 40 40 38 38 36 37 38 38 39
38 37 33 33 34 35 37 42 43 45 39 43 43 41 44 37 37 37 37 37 37 38 39 37 37 38 39
38 38 39 39 40 40 37 39 43 45 37 38 41 40 41 43 38 36 35 36 36 35 35 36 36 40 44
38 39 39 39 39 39 39 39 38 42 38 40 43 42 42 45 46 39 38 36 35 37 37 38 41 44 43
37 38 37 36 35 36 36 37 39 39 39 38 40 40 41 43 43 41 41 39 39 40 40 41 42 41 45
39 38 34 34 35 37 39 39 41 42 38 38 39 40 42 42 43 44 40 41 38 38 39 40 40 39 40
35 36 35 35 35 34 35 36 39 39 37 35 36 38 40 41 43 41 41 41 39 40 41 43 41 39 40
40 40 41 41 40 39 38 39 42 41 41 39 38 38 39 39 38 42 42 43 41 41 41 43 42 40 42
39 40 39 39 40 40 40 41 43 42 41 40 40 43 47 51 45 40 45 43 40 39 37 41 47 47 47
Wind_Direction
256 248 245 244 251 258 263 269 275 277 281 285 289 293 297 300 301 303 303 304 304 304 304 302 302 302 303
252 247 249 247 251 257 263 270 273 277 280 282 285 290 293 296 299 300 302 301 302 301 302 301 302 301 301
255 251 251 249 254 260 263 269 273 276 278 281 284 288 291 293 294 298 299 299 300 299 299 299 299 300 300
252 250 249 253 255 258 262 267 270 275 278 281 284 288 290 291 292 295 297 297 297 297 297 297 298 298 299
252 251 252 254 255 260 262 267 270 274 280 282 284 286 289 290 291 293 295 295 296 296 296 296 297 296 297
255 252 254 254 256 261 264 268 271 276 278 281 282 284 287 289 291 292 292 293 294 295 294 295 296 296 296
258 258 257 261 262 263 266 270 274 280 279 280 283 283 286 288 290 290 290 291 292 294 293 292 293 294 294
264 265 268 269 267 269 270 273 276 277 279 280 283 283 286 287 287 287 288 290 292 292 292 291 291 292 293
267 267 268 268 269 271 270 272 273 274 278 280 282 284 286 286 286 286 287 288 289 290 290 290 290 291 293
269 270 270 269 268 270 271 271 274 277 278 279 282 285 287 288 287 288 288 288 288 289 289 288 289 292 293
270 270 270 270 271 272 274 273 274 276 280 280 283 283 283 287 290 290 289 290 289 288 288 288 288 291 293
269 269 270 271 273 273 274 275 276 277 281 279 281 281 282 284 286 288 287 287 287 287 288 288 289 291 291
271 271 272 274 275 275 276 277 278 279 280 279 279 281 281 283 285 286 287 287 287 287 288 288 288 290 291
272 274 276 274 275 276 275 277 278 279 280 279 279 280 280 281 283 284 286 286 289 288 289 289 290 291 291
275 274 275 276 277 279 280 282 280 279 282 284 283 281 281 282 282 284 286 287 287 289 289 288 289 290 291
273 273 274 275 276 277 278 278 278 280 282 283 285 286 286 285 283 285 286 286 287 289 289 288 288 291 293
272 273 273 274 275 276 276 277 278 279 281 283 283 282 282 282 286 286 286 286 286 287 288 289 291 293 295